GW6112 Weather Reports


time (UTC)temp
C
wind
direction
speed
KPH
gust
KPH
rain 1hr
cm
rain 24hr
cm
rain mn
cm
humidity
%
barometer
mb
20260906225455 23 9 4.8 9.7 0.00 0.00 0.00 44 1027.8
20260906224951 23 94 9.7 11.3 0.00 0.00 0.00 44 1027.7
20260906224447 23 57 9.7 11.3 0.00 0.00 0.00 44 1027.8
20260906223943 23 77 4.8 9.7 0.00 0.00 0.00 43 1027.8
20260906223439 23 137 4.8 14.5 0.00 0.00 0.00 44 1027.8
20260906222937 23 45 4.8 12.9 0.00 0.00 0.00 42 1027.9
20260906222437 25 107 11.3 17.7 0.00 0.00 0.00 41 1028.0
20260906221935 23 45 4.8 14.5 0.00 0.00 0.00 44 1027.8
20260906221434 23 79 8.0 11.3 0.00 0.00 0.00 43 1027.9
20260906220930 23 53 8.0 9.7 0.00 0.00 0.00 44 1027.8
20260906220425 23 105 4.8 12.9 0.00 0.00 0.00 43 1028.0
20260906215925 23 55 1.6 14.5 0.00 0.00 0.00 45 1027.8
20260906215425 23 112 12.9 17.7 0.00 0.00 0.00 41 1027.9
20260906214923 24 102 9.7 17.7 0.00 0.00 0.00 41 1027.9
20260906214422 23 115 6.4 12.9 0.00 0.00 0.00 42 1028.2
20260906213922 23 95 14.5 16.1 0.00 0.00 0.00 43 1028.3
20260906213416 23 103 11.3 12.9 0.00 0.00 0.00 41 1028.4
20260906212914 23 43 6.4 14.5 0.00 0.00 0.00 43 1028.6
20260906212409 22 143 8.0 9.7 0.00 0.00 0.00 45 1028.2
20260906211909 22 69 6.4 20.9 0.00 0.00 0.00 45 1028.2
20260906211405 21 51 4.8 14.5 0.00 0.00 0.00 44 1028.2
20260906210905 22 107 4.8 8.0 0.00 0.00 0.00 43 1028.0
20260906210401 22 59 4.8 14.5 0.00 0.00 0.00 42 1028.3
20260906205855 22 114 6.4 9.7 0.00 0.00 0.00 43 1028.4
20260906205351 22 144 8.0 14.5 0.00 0.00 0.00 44 1028.6
20260906204847 21 48 6.4 11.3 0.00 0.00 0.00 44 1028.6
20260906204346 22 100 6.4 17.7 0.00 0.00 0.00 44 1028.8
20260906203845 23 315 3.2 14.5 0.00 0.00 0.00 39 1028.7
20260906203341 23 135 11.3 20.9 0.00 0.00 0.00 42 1028.6
20260906202838 22 118 11.3 14.5 0.00 0.00 0.00 44 1028.7
20260906202337 22 133 9.7 16.1 0.00 0.00 0.00 45 1029.0
20260906201837 21 85 6.4 9.7 0.00 0.00 0.00 45 1029.0
20260906201332 22 86 8.0 11.3 0.00 0.00 0.00 45 1029.0
20260906200827 22 108 4.8 9.7 0.00 0.00 0.00 44 1029.0
20260906200323 22 77 3.2 12.9 0.00 0.00 0.00 42 1028.7
20260906195818 23 107 12.9 24.1 0.00 0.00 0.00 40 1028.8
20260906195315 22 96 11.3 17.7 0.00 0.00 0.00 41 1028.7
20260906194811 23 46 17.7 19.3 0.00 0.00 0.00 41 1028.8
20260906194306 23 56 9.7 16.1 0.00 0.00 0.00 43 1028.7
20260906193801 23 112 8.0 20.9 0.00 0.00 0.00 42 1029.1
20260906193255 22 357 4.8 20.9 0.00 0.00 0.00 44 1029.1
20260906192752 22 26 14.5 19.3 0.00 0.00 0.00 44 1029.0
20260906192251 22 35 4.8 19.3 0.00 0.00 0.00 44 1029.0
20260906191751 23 88 6.4 22.5 0.00 0.00 0.00 40 1029.1
20260906191246 24 58 14.5 16.1 0.00 0.00 0.00 40 1029.1
20260906190746 23 132 12.9 17.7 0.00 0.00 0.00 41 1029.2
20260906190240 24 79 14.5 22.5 0.00 0.00 0.00 40 1029.1
20260906185739 24 93 6.4 22.5 0.00 0.00 0.00 40 1029.0
20260906185238 23 179 3.2 27.4 0.00 0.00 0.00 39 1029.2
20260906184733 22 120 8.0 20.9 0.00 0.00 0.00 41 1029.1
20260906184228 23 75 8.0 12.9 0.00 0.00 0.00 39 1029.2
20260906183724 25 56 14.5 27.4 0.00 0.00 0.00 38 1029.2
20260906183220 25 132 9.7 12.9 0.00 0.00 0.00 35 1029.4
20260906182720 24 137 16.1 17.7 0.00 0.00 0.00 36 1029.4
20260906182216 23 23 6.4 16.1 0.00 0.00 0.00 37 1029.5
20260906181711 24 34 19.3 24.1 0.00 0.00 0.00 36 1029.6
20260906181208 23 121 8.0 20.9 0.00 0.00 0.00 38 1029.7
20260906180707 23 128 12.9 17.7 0.00 0.00 0.00 37 1029.9
20260906180203 23 110 12.9 20.9 0.00 0.00 0.00 38 1029.7
20260906175700 23 94 12.9 19.3 0.00 0.00 0.00 38 1029.7
20260906175156 23 95 6.4 24.1 0.00 0.00 0.00 36 1030.1
20260906174654 23 61 9.7 27.4 0.00 0.00 0.00 37 1030.1
20260906174149 23 139 14.5 17.7 0.00 0.00 0.00 37 1030.0
20260906173644 23 110 9.7 19.3 0.00 0.00 0.00 36 1030.1
20260906173140 24 146 16.1 20.9 0.00 0.00 0.00 35 1030.4
20260906172639 23 84 6.4 9.7 0.00 0.00 0.00 38 1030.4
20260906172135 23 129 16.1 25.7 0.00 0.00 0.00 38 1030.4
20260906171634 22 93 8.0 17.7 0.00 0.00 0.00 40 1030.3
20260906171130 22 45 6.4 16.1 0.00 0.00 0.00 40 1030.8
20260906170626 22 59 6.4 20.9 0.00 0.00 0.00 39 1030.7
20260906170125 22 116 6.4 19.3 0.00 0.00 0.00 38 1030.4
20260906165622 23 158 8.0 9.7 0.00 0.00 0.00 37 1030.7
20260906165117 23 122 9.7 19.3 0.00 0.00 0.00 37 1030.5
20260906164615 23 96 8.0 11.3 0.00 0.00 0.00 37 1030.5
20260906164112 23 109 3.2 17.7 0.00 0.00 0.00 38 1030.7
20260906163607 22 114 11.3 22.5 0.00 0.00 0.00 40 1030.9
20260906163103 23 42 6.4 14.5 0.00 0.00 0.00 38 1030.8
20260906162600 22 23 1.6 11.3 0.00 0.00 0.00 39 1030.8
20260906162055 22 142 6.4 14.5 0.00 0.00 0.00 39 1031.1
20260906161550 22 228 3.2 17.7 0.00 0.00 0.00 39 1030.9
20260906161048 22 117 9.7 11.3 0.00 0.00 0.00 40 1030.7
20260906160547 21 149 6.4 14.5 0.00 0.00 0.00 41 1030.8
20260906160046 21 121 6.4 19.3 0.00 0.00 0.00 41 1030.7
20260906155544 21 124 9.7 11.3 0.00 0.00 0.00 41 1030.4
20260906155040 21 154 11.3 14.5 0.00 0.00 0.00 41 1030.7
20260906154535 21 13 3.2 6.4 0.00 0.00 0.00 41 1030.7
20260906154034 21 136 8.0 14.5 0.00 0.00 0.00 41 1030.7
20260906153533 20 141 3.2 9.7 0.00 0.00 0.00 44 1030.7
20260906153029 21 88 9.7 12.9 0.00 0.00 0.00 42 1030.8
20260906152528 22 78 4.8 11.3 0.00 0.00 0.00 39 1030.9
20260906152027 21 40 3.2 6.4 0.00 0.00 0.00 39 1030.7
20260906151523 21 92 3.2 6.4 0.00 0.00 0.00 39 1030.5
20260906151024 21 310 4.8 9.7 0.00 0.00 0.00 39 1030.5
20260906150519 21 28 6.4 8.0 0.00 0.00 0.00 39 1030.7
20260906150014 21 4 4.8 6.4 0.00 0.00 0.00 40 1031.1
20260906145513 20 76 3.2 6.4 0.00 0.00 0.00 40 1030.8
20260906145008 21 78 6.4 9.7 0.00 0.00 0.00 39 1030.7
20260906144502 21 347 6.4 9.7 0.00 0.00 0.00 39 1030.7
20260906143958 20 54 3.2 8.0 0.00 0.00 0.00 40 1030.7
20260906143453 20 80 4.8 8.0 0.00 0.00 0.00 40 1030.8
20260906142949 20 338 8.0 9.7 0.00 0.00 0.00 40 1030.5
20260906142443 20 1 9.7 9.7 0.00 0.00 0.00 41 1030.5
20260906141938 20 343 6.4 9.7 0.00 0.00 0.00 40 1030.5
20260906141438 19 345 6.4 8.0 0.00 0.00 0.00 42 1030.7
20260906140938 20 9 4.8 8.0 0.00 0.00 0.00 41 1030.5
20260906140432 21 131 3.2 4.8 0.00 0.00 0.00 38 1030.3
20260906135930 20 44 0.0 3.2 0.00 0.00 0.00 40 1030.4
20260906135429 20 355 4.8 4.8 0.00 0.00 0.00 40 1030.3
20260906134926 19 51 4.8 6.4 0.00 0.00 0.00 42 1030.4
20260906134420 20 353 4.8 4.8 0.00 0.00 0.00 40 1030.3
20260906133915 20 1 3.2 6.4 0.00 0.00 0.00 40 1030.4
20260906133411 20 13 4.8 4.8 0.00 0.00 0.00 40 1030.3
20260906132906 20 0 3.2 4.8 0.00 0.00 0.00 39 1030.3
20260906132402 21 16 0.0 1.6 0.00 0.00 0.00 37 1030.1
20260906131857 20 126 0.0 1.6 0.00 0.00 0.00 39 1030.1
20260906131353 19 166 0.0 1.6 0.00 0.00 0.00 40 1030.1
20260906130848 18 240 0.0 3.2 0.00 0.00 0.00 43 1029.9
20260906130348 17 341 0.0 1.6 0.00 0.00 0.00 44 1030.0
20260906125847 16 319 1.6 3.2 0.00 0.00 0.00 46 1029.7
20260906125344 16 288 3.2 4.8 0.00 0.00 0.00 48 1030.0
20260906124839 16 286 3.2 6.4 0.00 0.00 0.00 48 1029.6
20260906124335 16 240 6.4 6.4 0.00 0.00 0.00 47 1029.7
20260906123834 16 257 3.2 4.8 0.00 0.00 0.00 47 1029.7
20260906123329 16 335 1.6 1.6 0.00 0.00 0.00 47 1029.7
20260906122829 16 241 1.6 3.2 0.00 0.00 0.00 46 1029.7
20260906122324 16 286 0.0 3.2 0.00 0.00 0.00 45 1029.7
20260906121821 16 299 4.8 4.8 0.00 0.00 0.00 46 1029.7
20260906121316 16 279 4.8 6.4 0.00 0.00 0.00 47 1029.9
20260906120813 16 297 3.2 4.8 0.00 0.00 0.00 47 1030.1
20260906120308 16 280 3.2 4.8 0.00 0.00 0.00 47 1030.0
20260906115804 16 272 3.2 6.4 0.00 0.00 0.00 46 1029.9
20260906115259 16 294 3.2 4.8 0.00 0.00 0.00 46 1029.7
20260906114758 16 305 3.2 4.8 0.00 0.00 0.00 45 1029.9
20260906114254 16 296 3.2 4.8 0.00 0.00 0.00 45 1030.0
20260906113749 16 309 4.8 4.8 0.00 0.00 0.00 46 1030.0
20260906113248 16 304 0.0 3.2 0.00 0.00 0.00 47 1029.9
20260906112748 16 147 0.0 3.2 0.00 0.00 0.00 46 1029.7
20260906112245 16 322 0.0 1.6 0.00 0.00 0.00 46 1029.7
20260906111744 16 61 0.0 3.2 0.00 0.00 0.00 47 1029.7
20260906111239 16 282 0.0 3.2 0.00 0.00 0.00 47 1029.6
20260906110734 16 263 1.6 1.6 0.00 0.00 0.00 47 1030.0
20260906110230 16 285 1.6 3.2 0.00 0.00 0.00 46 1029.6
20260906105728 17 287 3.2 6.4 0.00 0.00 0.00 45 1029.6
20260906105225 17 295 3.2 4.8 0.00 0.00 0.00 45 1029.6
20260906104725 17 311 3.2 4.8 0.00 0.00 0.00 45 1029.6
20260906104224 17 285 3.2 3.2 0.00 0.00 0.00 45 1030.0
20260906103721 16 309 3.2 3.2 0.00 0.00 0.00 46 1029.7
20260906103216 17 287 3.2 4.8 0.00 0.00 0.00 45 1029.7
20260906102712 16 295 3.2 4.8 0.00 0.00 0.00 46 1029.7
20260906102212 16 309 3.2 6.4 0.00 0.00 0.00 46 1029.7
20260906101712 16 328 1.6 3.2 0.00 0.00 0.00 47 1029.9
20260906101207 16 284 0.0 3.2 0.00 0.00 0.00 47 1030.0
20260906100702 16 268 3.2 6.4 0.00 0.00 0.00 47 1029.6
20260906100202 16 285 8.0 8.0 0.00 0.00 0.00 47 1029.9
20260906095657 16 320 3.2 6.4 0.00 0.00 0.00 46 1029.9
20260906095152 17 340 4.8 6.4 0.00 0.00 0.00 46 1030.0
20260906094651 17 31 4.8 6.4 0.00 0.00 0.00 46 1029.7
20260906094147 16 345 1.6 3.2 0.00 0.00 0.00 46 1030.0
20260906093643 17 215 0.0 6.4 0.00 0.00 0.00 44 1030.0
20260906093143 18 265 3.2 4.8 0.00 0.00 0.00 42 1030.0
20260906092638 18 158 3.2 6.4 0.00 0.00 0.00 41 1030.1
20260906092133 18 238 8.0 11.3 0.00 0.00 0.00 42 1030.0
20260906091629 18 208 9.7 9.7 0.00 0.00 0.00 42 1030.0
20260906091125 18 235 9.7 12.9 0.00 0.00 0.00 43 1029.9
20260906090620 18 232 9.7 11.3 0.00 0.00 0.00 43 1029.9
20260906090115 18 242 9.7 16.1 0.00 0.00 0.00 43 1029.9
20260906085614 18 251 6.4 11.3 0.00 0.00 0.00 44 1029.7
20260906085113 18 247 9.7 12.9 0.00 0.00 0.00 44 1029.9
20260906084608 18 239 14.5 17.7 0.00 0.00 0.00 44 1029.6
20260906084107 18 236 11.3 14.5 0.00 0.00 0.00 43 1029.9
20260906083604 18 228 9.7 17.7 0.00 0.00 0.00 43 1029.9
20260906083103 18 246 11.3 14.5 0.00 0.00 0.00 43 1029.9
20260906082558 18 237 12.9 14.5 0.00 0.00 0.00 42 1029.7
20260906082054 18 273 6.4 17.7 0.00 0.00 0.00 42 1029.9
20260906081549 18 231 12.9 14.5 0.00 0.00 0.00 42 1030.0
20260906081044 18 231 8.0 12.9 0.00 0.00 0.00 42 1030.0
20260906080541 18 253 9.7 11.3 0.00 0.00 0.00 41 1030.1
20260906080037 18 231 8.0 9.7 0.00 0.00 0.00 41 1030.0
20260906075537 18 222 11.3 12.9 0.00 0.00 0.00 41 1030.0
20260906075031 18 256 4.8 11.3 0.00 0.00 0.00 41 1030.3
20260906074526 18 247 8.0 11.3 0.00 0.00 0.00 42 1030.3
20260906074025 18 244 11.3 11.3 0.00 0.00 0.00 42 1030.0
20260906073520 18 238 9.7 11.3 0.00 0.00 0.00 42 1030.1
20260906073016 17 250 9.7 9.7 0.00 0.00 0.00 42 1030.0
20260906072511 18 274 6.4 9.7 0.00 0.00 0.00 43 1030.1
20260906072007 18 242 4.8 12.9 0.00 0.00 0.00 43 1030.4
20260906071503 17 223 8.0 12.9 0.00 0.00 0.00 43 1030.3
20260906070958 17 257 6.4 9.7 0.00 0.00 0.00 44 1030.4
20260906070454 17 261 4.8 9.7 0.00 0.00 0.00 44 1030.4
20260906065950 17 265 6.4 9.7 0.00 0.00 0.00 45 1030.4
20260906065449 17 259 9.7 9.7 0.00 0.00 0.00 45 1030.5
20260906064945 17 259 6.4 9.7 0.00 0.00 0.00 45 1030.4
20260906064442 17 243 4.8 8.0 0.00 0.00 0.00 46 1030.5
20260906063942 17 254 6.4 9.7 0.00 0.00 0.00 47 1030.5
20260906063437 16 273 9.7 11.3 0.00 0.00 0.00 48 1030.4
20260906062937 16 259 11.3 14.5 0.00 0.00 0.00 49 1030.5
20260906062432 16 275 12.9 17.7 0.00 0.00 0.00 50 1030.7
20260906061927 16 283 12.9 16.1 0.00 0.00 0.00 50 1030.8
20260906061423 15 292 9.7 11.3 0.00 0.00 0.00 52 1030.7
20260906060918 15 287 8.0 8.0 0.00 0.00 0.00 55 1030.5
20260906060415 15 311 3.2 4.8 0.00 0.00 0.00 55 1030.7
20260906055911 15 296 6.4 6.4 0.00 0.00 0.00 54 1030.8
20260906055407 15 296 4.8 8.0 0.00 0.00 0.00 54 1030.8
20260906054902 15 285 6.4 9.7 0.00 0.00 0.00 55 1030.7
20260906054356 15 303 4.8 6.4 0.00 0.00 0.00 56 1030.9
20260906053853 15 299 4.8 6.4 0.00 0.00 0.00 55 1031.1
20260906053348 15 301 4.8 6.4 0.00 0.00 0.00 55 1031.1
20260906052844 15 298 3.2 3.2 0.00 0.00 0.00 54 1031.2
20260906052340 15 329 3.2 4.8 0.00 0.00 0.00 54 1031.4
20260906051837 15 295 3.2 6.4 0.00 0.00 0.00 56 1031.3
20260906051336 15 299 3.2 4.8 0.00 0.00 0.00 58 1031.3
20260906050832 16 8 6.4 8.0 0.00 0.00 0.00 57 1031.3
20260906050327 16 11 8.0 8.0 0.00 0.00 0.00 56 1031.6
20260906045826 16 279 6.4 8.0 0.00 0.00 0.00 55 1031.3
20260906045320 16 188 8.0 12.9 0.00 0.00 0.00 58 1031.3
20260906044817 16 153 6.4 12.9 0.00 0.00 0.00 58 1031.3
20260906044316 17 190 9.7 9.7 0.00 0.00 0.00 51 1031.4
20260906043812 16 267 11.3 14.5 0.00 0.00 0.00 54 1031.2
20260906043309 16 255 9.7 29.0 0.00 0.00 0.00 54 1031.1
20260906042808 17 187 11.3 17.7 0.00 0.00 0.00 52 1031.1
20260906042307 16 185 11.3 29.0 0.00 0.00 0.00 53 1030.8
20260906041803 16 187 30.6 35.4 0.00 0.00 0.00 54 1031.1
20260906041258 17 257 16.1 20.9 0.00 0.00 0.00 49 1030.9
20260906040754 17 290 17.7 25.7 0.00 0.00 0.00 50 1030.8
20260906040249 17 303 17.7 24.1 0.00 0.00 0.00 49 1030.5
20260906035744 18 307 8.0 24.1 0.00 0.00 0.00 46 1030.4
20260906035240 17 286 19.3 27.4 0.00 0.00 0.00 46 1030.7
20260906034739 17 291 22.5 30.6 0.00 0.00 0.00 48 1030.5
20260906034234 17 299 9.7 38.6 0.00 0.00 0.00 48 1030.3
20260906033730 18 307 17.7 37.0 0.00 0.00 0.00 44 1030.4
20260906033229 18 311 27.4 33.8 0.00 0.00 0.00 42 1030.4
20260906032727 19 331 14.5 22.5 0.00 0.00 0.00 41 1030.5
20260906032226 19 284 22.5 24.1 0.00 0.00 0.00 40 1030.5
20260906031721 19 324 17.7 19.3 0.00 0.00 0.00 39 1030.7
20260906031217 19 271 8.0 17.7 0.00 0.00 0.00 38 1030.5
20260906030717 19 284 16.1 17.7 0.00 0.00 0.00 38 1030.4
20260906030212 19 310 4.8 4.8 0.00 0.00 0.00 38 1030.3
20260906025711 19 285 8.0 11.3 0.00 0.00 0.00 38 1030.1
20260906025206 19 306 8.0 16.1 0.00 0.00 0.00 39 1030.0
20260906024700 19 300 6.4 16.1 0.00 0.00 0.00 40 1030.3
20260906024159 18 295 16.1 17.7 0.00 0.00 0.00 40 1029.9
20260906023655 18 295 11.3 22.5 0.00 0.00 0.00 41 1030.0
20260906023155 18 315 11.3 16.1 0.00 0.00 0.00 42 1030.0
20260906022650 18 331 8.0 16.1 0.00 0.00 0.00 42 1029.9
20260906022146 18 316 11.3 16.1 0.00 0.00 0.00 42 1029.7
20260906021641 18 297 16.1 20.9 0.00 0.00 0.00 43 1029.7
20260906021140 18 310 6.4 16.1 0.00 0.00 0.00 42 1029.4
20260906020635 18 314 11.3 14.5 0.00 0.00 0.00 42 1029.4
20260906020130 18 303 8.0 11.3 0.00 0.00 0.00 42 1029.5
20260906015630 18 308 9.7 16.1 0.00 0.00 0.00 43 1029.6
20260906015129 18 336 9.7 17.7 0.00 0.00 0.00 43 1029.5
20260906014628 18 320 8.0 12.9 0.00 0.00 0.00 42 1029.5
20260906014125 18 315 9.7 17.7 0.00 0.00 0.00 40 1029.5
20260906013620 19 331 9.7 16.1 0.00 0.00 0.00 40 1029.7
20260906013116 19 309 9.7 19.3 0.00 0.00 0.00 40 1029.6
20260906012610 19 325 9.7 16.1 0.00 0.00 0.00 40 1029.7
20260906012110 20 341 16.1 17.7 0.00 0.00 0.00 40 1029.7
20260906011607 20 304 8.0 22.5 0.00 0.00 0.00 40 1029.7
20260906011106 20 314 11.3 17.7 0.00 0.00 0.00 39 1029.7
20260906010601 20 327 9.7 11.3 0.00 0.00 0.00 40 1029.9
20260906010058 20 309 8.0 14.5 0.00 0.00 0.00 39 1029.7
20260906005557 20 334 9.7 14.5 0.00 0.00 0.00 39 1029.9
20260906005057 20 308 8.0 12.9 0.00 0.00 0.00 39 1029.6
20260906004556 20 343 16.1 20.9 0.00 0.00 0.00 38 1029.4
20260906004051 20 325 16.1 19.3 0.00 0.00 0.00 38 1029.5
20260906003545 20 315 14.5 19.3 0.00 0.00 0.00 37 1029.6
20260906003042 20 334 9.7 12.9 0.00 0.00 0.00 37 1029.6
20260906002543 21 325 12.9 17.7 0.00 0.00 0.00 36 1029.6
20260906002037 21 280 6.4 9.7 0.00 0.00 0.00 34 1029.6
20260906001533 22 56 3.2 8.0 0.00 0.00 0.00 33 1029.7
20260906001027 22 33 6.4 6.4 0.00 0.00 0.00 33 1029.7
20260906000523 22 61 8.0 9.7 0.00 0.00 0.00 32 1029.5
20260906000018 22 51 4.8 6.4 0.00 0.00 0.00 32 1029.5
20260905235517 22 257 3.2 8.0 0.00 0.00 0.00 32 1029.7
20260905235013 22 49 4.8 8.0 0.00 0.00 0.00 32 1029.5
20260905234509 22 72 3.2 9.7 0.00 0.00 0.00 31 1029.5
20260905234008 23 131 6.4 9.7 0.00 0.00 0.00 31 1029.4
20260905233503 23 80 8.0 16.1 0.00 0.00 0.00 30 1029.4
20260905233003 25 170 11.3 17.7 0.00 0.00 0.00 29 1029.1
20260905232459 25 127 9.7 9.7 0.00 0.00 0.00 29 1029.2
20260905231954 24 143 9.7 9.7 0.00 0.00 0.00 29 1029.4
20260905231449 24 96 4.8 8.0 0.00 0.00 0.00 30 1029.0
20260905230946 23 324 6.4 11.3 0.00 0.00 0.00 30 1029.2
20260905230444 23 14 6.4 11.3 0.00 0.00 0.00 30 1029.1
20260905225943 23 84 3.2 6.4 0.00 0.00 0.00 30 1029.2